Вернуться в каталог

CZ-3C DEB

АктивенGTO
NORAD 40855·DEBRIS·🇨🇳 China

Запущен Feb 24, 2012 с Xichang Satellite Launch Center

Loading…

TLE

УстаревающийSource: Space-Track

Эпоха: Sep 14, 2026, 14:22 UTC

1 40855U 12008V   26257.59928111 -.00000019  00000-0  28631-2 0  9994
2 40855  22.6415 304.2087 7063685 270.8333  18.4801  2.32142631100422

Отслеживайте CZ-3C DEB в реальном времени с AllMySat

Download on the App Store